CST,Max TemperatureF,Mean TemperatureF,Min TemperatureF,Max Dew PointF,MeanDew PointF,Min DewpointF,Max Humidity, Mean Humidity, Min Humidity, Max Sea Level PressureIn, Mean Sea Level PressureIn, Min Sea Level PressureIn, Max VisibilityMiles, Mean VisibilityMiles, Min VisibilityMiles, Max Wind SpeedMPH, Mean Wind SpeedMPH, Max Gust SpeedMPH,PrecipitationIn, CloudCover, Events, WindDirDegrees
2012-12-1,58,42,26,54,42,23,100,90,80,29.98,29.86,29.79,5,2,0,14,3,16,0.00,4,Fog,205
2012-12-2,68,47,26,44,36,27,100,68,35,30.05,29.93,29.75,10,7,2,17,5,20,0.00,0,,154
2012-12-3,62,44,25,46,37,22,100,68,36,30.14,29.77,29.60,10,5,0,31,8,38,0.00,0,Fog,313
2012-12-4,63,43,22,24,21,17,81,49,17,30.32,30.27,30.15,10,10,7,9,2,10,0.00,0,,305
2012-12-5,60,40,20,27,21,16,84,52,20,30.32,30.12,29.92,10,10,10,31,11,38,0.00,0,,177
2012-12-6,51,45,39,31,26,23,60,48,36,30.03,29.94,29.86,10,10,10,24,11,29,T,5,,19
2012-12-7,45,34,23,34,26,19,81,69,57,30.02,29.97,29.91,10,9,7,9,4,12,T,3,,356
2012-12-8,40,30,20,29,26,18,100,82,64,30.05,29.98,29.87,8,5,0,14,6,16,0.00,5,Fog,94
2012-12-9,38,27,15,33,15,2,92,71,50,30.21,30.04,29.86,10,9,5,31,17,44,0.00,7,,311
2012-12-10,31,18,5,5,2,-1,83,56,28,30.22,30.09,29.97,10,10,10,23,8,30,0.00,1,,256
2012-12-11,46,32,18,20,15,7,74,53,31,30.09,30.04,29.98,10,10,10,23,8,28,0.00,1,,234
2012-12-12,53,38,23,16,15,13,68,44,20,30.04,30.00,29.93,10,10,10,29,15,37,0.00,0,,192
2012-12-13,54,37,20,21,18,16,68,47,26,30.11,30.05,29.98,10,10,7,18,6,24,0.00,0,,226
2012-12-14,56,35,14,41,28,11,88,67,46,30.07,29.86,29.59,10,9,4,21,9,25,0.19,3,Rain,161
2012-12-15,47,44,41,45,39,28,100,90,79,29.77,29.57,29.41,10,6,2,20,11,26,0.67,7,Rain,286
2012-12-16,34,32,29,30,27,25,92,84,75,29.86,29.80,29.73,8,7,4,13,7,16,T,8,Snow,354
2012-12-17,32,28,23,28,25,21,100,89,78,29.83,29.74,29.60,9,6,5,14,4,16,0.00,3,,264
2012-12-18,50,35,19,34,27,18,92,72,52,29.89,29.72,29.50,10,9,5,23,6,29,0.00,0,,328
2012-12-19,35,31,27,32,30,26,96,89,82,29.92,29.80,29.70,10,3,0,40,15,48,0.58,7,Fog-Rain-Snow,21
2012-12-20,27,20,13,25,16,9,100,84,68,30.31,30.00,29.77,10,4,0,40,16,49,0.03,5,Fog-Snow,334
2012-12-21,31,18,4,21,12,2,92,78,63,30.41,30.32,30.23,10,9,5,7,1,7,0.00,0,,124
2012-12-22,35,20,5,25,15,3,100,82,64,30.20,30.08,29.99,9,7,5,17,4,21,0.00,0,,331
2012-12-23,19,13,7,13,9,5,92,83,73,30.13,30.09,30.04,7,6,5,12,7,15,0.00,0,,354
2012-12-24,18,12,6,10,7,2,91,81,70,30.31,30.19,30.05,10,9,6,21,12,26,T,4,,346
2012-12-25,14,9,3,5,2,-2,87,77,67,30.56,30.46,30.31,10,10,10,24,14,28,0.00,3,,6
2012-12-26,14,7,-1,5,1,-3,87,74,61,30.45,30.32,30.18,10,9,6,9,4,12,0.00,0,,2
2012-12-27,24,14,3,20,16,1,92,83,74,30.20,30.07,29.96,10,7,4,16,6,20,T,8,Snow,91
2012-12-28,22,19,15,19,15,10,92,83,73,30.20,30.08,29.99,7,4,1,17,9,21,T,7,Snow,325
2012-12-29,28,15,2,17,9,-2,96,79,62,30.32,30.27,30.16,10,8,6,13,4,16,0.00,1,,245
2012-12-30,42,25,8,26,18,6,92,72,51,30.31,30.15,30.01,10,10,7,23,9,26,0.00,0,,228
2012-12-31,26,21,15,18,16,11,92,80,68,30.31,30.22,30.15,10,6,0,17,12,21,0.03,7,Snow,17